Location: Glenmont
(42.6048°N, 73.7696°W)
Time: 08:07:24
(UTC+00:00)

BlueWalker 3 - Pass Details

Date: 08 September 2024
Orbit: 472 x 484 km, 53.2° (Epoch: 12 October)

Event Time Altitude Azimuth Distance (km) Brightness Sun altitude
Rises 23:50:50 0° 307° (NW) 2,546 6.9 -7.1°
Reaches altitude 10° 23:53:26 10° 325° (NW) 1,669 5.4 -7.6°
Maximum altitude 23:56:16 20° 14° (NNE) 1,181 3.8 -8.1°
Drops below altitude 10° 23:59:07 10° 63° (ENE) 1,674 4.1 -8.6°
Enters shadow 23:59:51 - 70° (ENE) 1,902 4.4 -8.7°
